owner,sensor,date,latitude,longitude,vertical_datum,sea_water_practical_salinity,qcFlag 
DISL,ioos:station:DISL:MHPA:1,2013-10-01T00:00:00Z,30.6671,-87.9365,3.362,1.56,1111122 
DISL,ioos:station:DISL:MHPA:1,2013-10-01T00:30:00Z,30.6671,-87.9365,3.436,1.56,1111122 
DISL,ioos:station:DISL:MHPA:1,2013-10-01T01:00:00Z,30.6671,-87.9365,3.512,1.55,1111122 
DISL,ioos:station:DISL:MHPA:1,2013-10-01T01:30:00Z,30.6671,-87.9365,3.552,1.54,1111122 
DISL,ioos:station:DISL:MHPA:1,2013-10-01T02:00:00Z,30.6671,-87.9365,3.636,1.55,1111122 
DISL,ioos:station:DISL:MHPA:1,2013-10-01T02:30:00Z,30.6671,-87.9365,3.744,1.56,1111122 
DISL,ioos:station:DISL:MHPA:1,2013-10-01T03:00:00Z,30.6671,-87.9365,3.781,1.56,1111122 
DISL,ioos:station:DISL:MHPA:1,2013-10-01T03:30:00Z,30.6671,-87.9365,3.868,1.55,1111122 
DISL,ioos:station:DISL:MHPA:1,2013-10-01T04:00:00Z,30.6671,-87.9365,3.969,1.55,1111122 
DISL,ioos:station:DISL:MHPA:1,2013-10-01T04:30:00Z,30.6671,-87.9365,4.051,1.55,1111122 
DISL,ioos:station:DISL:MHPA:1,2013-10-01T05:00:00Z,30.6671,-87.9365,4.129,1.55,1111122 
DISL,ioos:station:DISL:MHPA:1,2013-10-01T05:30:00Z,30.6671,-87.9365,4.163,1.56,1111122 
DISL,ioos:station:DISL:MHPA:1,2013-10-01T06:00:00Z,30.6671,-87.9365,4.215,1.55,1111122 
DISL,ioos:station:DISL:MHPA:1,2013-10-01T06:30:00Z,30.6671,-87.9365,4.266,1.56,1111122 
DISL,ioos:station:DISL:MHPA:1,2013-10-01T07:00:00Z,30.6671,-87.9365,4.262,1.56,1111122 
DISL,ioos:station:DISL:MHPA:1,2013-10-01T07:30:00Z,30.6671,-87.9365,4.257,1.56,1111122 
DISL,ioos:station:DISL:MHPA:1,2013-10-01T08:00:00Z,30.6671,-87.9365,4.277,1.56,1111122 
DISL,ioos:station:DISL:MHPA:1,2013-10-01T08:30:00Z,30.6671,-87.9365,4.293,1.56,1111122 
DISL,ioos:station:DISL:MHPA:1,2013-10-01T09:00:00Z,30.6671,-87.9365,4.269,1.57,1111122 
DISL,ioos:station:DISL:MHPA:1,2013-10-01T09:30:00Z,30.6671,-87.9365,4.247,1.57,1111122 
DISL,ioos:station:DISL:MHPA:1,2013-10-01T10:00:00Z,30.6671,-87.9365,4.258,1.58,1111122 
DISL,ioos:station:DISL:MHPA:1,2013-10-01T10:30:00Z,30.6671,-87.9365,4.26,1.58,1111122 
DISL,ioos:station:DISL:MHPA:1,2013-10-01T11:00:00Z,30.6671,-87.9365,4.236,1.58,1111122 
DISL,ioos:station:DISL:MHPA:1,2013-10-01T11:30:00Z,30.6671,-87.9365,4.254,1.58,1111122 
DISL,ioos:station:DISL:MHPA:1,2013-10-01T12:00:00Z,30.6671,-87.9365,4.224,1.61,1111122 
DISL,ioos:station:DISL:MHPA:1,2013-10-01T12:30:00Z,30.6671,-87.9365,4.231,1.62,1111122 
DISL,ioos:station:DISL:MHPA:1,2013-10-01T13:00:00Z,30.6671,-87.9365,4.314,1.64,1111122 
DISL,ioos:station:DISL:MHPA:1,2013-10-01T13:30:00Z,30.6671,-87.9365,4.363,1.66,1111122 
DISL,ioos:station:DISL:MHPA:1,2013-10-01T14:00:00Z,30.6671,-87.9365,4.396,1.66,1111122 
DISL,ioos:station:DISL:MHPA:1,2013-10-01T14:30:00Z,30.6671,-87.9365,4.397,1.64,1111122 
DISL,ioos:station:DISL:MHPA:1,2013-10-01T15:00:00Z,30.6671,-87.9365,4.454,1.66,1111122 
DISL,ioos:station:DISL:MHPA:1,2013-10-01T15:30:00Z,30.6671,-87.9365,4.406,1.64,1111122 
DISL,ioos:station:DISL:MHPA:1,2013-10-01T16:00:00Z,30.6671,-87.9365,4.401,1.63,1111122 
DISL,ioos:station:DISL:MHPA:1,2013-10-01T16:30:00Z,30.6671,-87.9365,4.392,1.58,1111122 
DISL,ioos:station:DISL:MHPA:1,2013-10-01T17:00:00Z,30.6671,-87.9365,4.334,1.59,1111122 
DISL,ioos:station:DISL:MHPA:1,2013-10-01T17:30:00Z,30.6671,-87.9365,4.329,1.6,1111122 
DISL,ioos:station:DISL:MHPA:1,2013-10-01T18:00:00Z,30.6671,-87.9365,4.292,1.62,1111122 
DISL,ioos:station:DISL:MHPA:1,2013-10-01T18:30:00Z,30.6671,-87.9365,4.262,1.63,1111122 
DISL,ioos:station:DISL:MHPA:1,2013-10-01T19:00:00Z,30.6671,-87.9365,4.241,1.65,1111122 
DISL,ioos:station:DISL:MHPA:1,2013-10-01T19:30:00Z,30.6671,-87.9365,4.191,1.69,1111122 
DISL,ioos:station:DISL:MHPA:1,2013-10-01T20:00:00Z,30.6671,-87.9365,4.132,1.71,1111122 
DISL,ioos:station:DISL:MHPA:1,2013-10-01T20:30:00Z,30.6671,-87.9365,4.131,1.67,1111122 
DISL,ioos:station:DISL:MHPA:1,2013-10-01T21:00:00Z,30.6671,-87.9365,4.123,1.69,1111122 
DISL,ioos:station:DISL:MHPA:1,2013-10-01T21:30:00Z,30.6671,-87.9365,4.112,1.7,1111122 
DISL,ioos:station:DISL:MHPA:1,2013-10-01T22:00:00Z,30.6671,-87.9365,4.083,1.69,1111122 
DISL,ioos:station:DISL:MHPA:1,2013-10-01T22:30:00Z,30.6671,-87.9365,4.01,1.72,1111122 
DISL,ioos:station:DISL:MHPA:1,2013-10-01T23:00:00Z,30.6671,-87.9365,3.962,1.67,1111122 
DISL,ioos:station:DISL:MHPA:1,2013-10-01T23:30:00Z,30.6671,-87.9365,3.952,1.65,1111122 
DISL,ioos:station:DISL:MHPA:1,2013-10-02T00:00:00Z,30.6671,-87.9365,4.014,1.67,1111122 
DISL,ioos:station:DISL:MHPA:1,2013-10-02T00:30:00Z,30.6671,-87.9365,3.987,1.67,1111122 
DISL,ioos:station:DISL:MHPA:1,2013-10-02T01:00:00Z,30.6671,-87.9365,3.951,1.67,1111122 
DISL,ioos:station:DISL:MHPA:1,2013-10-02T01:30:00Z,30.6671,-87.9365,4.018,1.68,1111122 
DISL,ioos:station:DISL:MHPA:1,2013-10-02T02:00:00Z,30.6671,-87.9365,4.068,1.68,1111122 
DISL,ioos:station:DISL:MHPA:1,2013-10-02T02:30:00Z,30.6671,-87.9365,4.111,1.69,1111122 
DISL,ioos:station:DISL:MHPA:1,2013-10-02T03:00:00Z,30.6671,-87.9365,4.167,1.68,1111122 
DISL,ioos:station:DISL:MHPA:1,2013-10-02T03:30:00Z,30.6671,-87.9365,4.18,1.68,1111122 
DISL,ioos:station:DISL:MHPA:1,2013-10-02T04:00:00Z,30.6671,-87.9365,4.19,1.69,1111122 
DISL,ioos:station:DISL:MHPA:1,2013-10-02T04:30:00Z,30.6671,-87.9365,4.19,1.69,1111122 
DISL,ioos:station:DISL:MHPA:1,2013-10-02T05:00:00Z,30.6671,-87.9365,4.158,1.68,1111122 
DISL,ioos:station:DISL:MHPA:1,2013-10-02T05:30:00Z,30.6671,-87.9365,4.143,1.71,1111122 
DISL,ioos:station:DISL:MHPA:1,2013-10-02T06:00:00Z,30.6671,-87.9365,4.192,1.72,1111122 
DISL,ioos:station:DISL:MHPA:1,2013-10-02T06:30:00Z,30.6671,-87.9365,4.171,1.72,1111122 
DISL,ioos:station:DISL:MHPA:1,2013-10-02T07:00:00Z,30.6671,-87.9365,4.117,1.72,1111122 
DISL,ioos:station:DISL:MHPA:1,2013-10-02T07:30:00Z,30.6671,-87.9365,4.109,1.71,1111122 
DISL,ioos:station:DISL:MHPA:1,2013-10-02T08:00:00Z,30.6671,-87.9365,4.126,1.71,1111122 
DISL,ioos:station:DISL:MHPA:1,2013-10-02T08:30:00Z,30.6671,-87.9365,4.087,1.71,1111122 
DISL,ioos:station:DISL:MHPA:1,2013-10-02T09:00:00Z,30.6671,-87.9365,4.029,1.69,1111122 
DISL,ioos:station:DISL:MHPA:1,2013-10-02T09:30:00Z,30.6671,-87.9365,3.973,1.71,1111122 
DISL,ioos:station:DISL:MHPA:1,2013-10-02T10:00:00Z,30.6671,-87.9365,3.983,1.71,1111122 
DISL,ioos:station:DISL:MHPA:1,2013-10-02T10:30:00Z,30.6671,-87.9365,3.976,1.73,1111122 
DISL,ioos:station:DISL:MHPA:1,2013-10-02T11:00:00Z,30.6671,-87.9365,3.922,1.73,1111122 
DISL,ioos:station:DISL:MHPA:1,2013-10-02T11:30:00Z,30.6671,-87.9365,3.942,1.74,1111122 
DISL,ioos:station:DISL:MHPA:1,2013-10-02T12:00:00Z,30.6671,-87.9365,3.938,1.78,1111122 
DISL,ioos:station:DISL:MHPA:1,2013-10-02T12:30:00Z,30.6671,-87.9365,3.959,1.77,1111122 
DISL,ioos:station:DISL:MHPA:1,2013-10-02T13:00:00Z,30.6671,-87.9365,4.0,1.8,1111122 
DISL,ioos:station:DISL:MHPA:1,2013-10-02T13:30:00Z,30.6671,-87.9365,4.026,1.79,1111122 
DISL,ioos:station:DISL:MHPA:1,2013-10-02T14:00:00Z,30.6671,-87.9365,4.164,1.8,1111122 
DISL,ioos:station:DISL:MHPA:1,2013-10-02T14:30:00Z,30.6671,-87.9365,4.278,1.81,1111122 
DISL,ioos:station:DISL:MHPA:1,2013-10-02T15:00:00Z,30.6671,-87.9365,4.356,1.82,1111122 
DISL,ioos:station:DISL:MHPA:1,2013-10-02T15:30:00Z,30.6671,-87.9365,4.378,1.83,1111122 
DISL,ioos:station:DISL:MHPA:1,2013-10-02T16:00:00Z,30.6671,-87.9365,4.39,1.84,1111122 
DISL,ioos:station:DISL:MHPA:1,2013-10-02T16:30:00Z,30.6671,-87.9365,4.498,1.84,1111122 
DISL,ioos:station:DISL:MHPA:1,2013-10-02T17:00:00Z,30.6671,-87.9365,4.562,1.83,1111122 
DISL,ioos:station:DISL:MHPA:1,2013-10-02T17:30:00Z,30.6671,-87.9365,4.668,1.85,1111122 
DISL,ioos:station:DISL:MHPA:1,2013-10-02T18:00:00Z,30.6671,-87.9365,4.685,1.84,1111122 
DISL,ioos:station:DISL:MHPA:1,2013-10-02T18:30:00Z,30.6671,-87.9365,4.565,1.85,1111122 
DISL,ioos:station:DISL:MHPA:1,2013-10-02T19:00:00Z,30.6671,-87.9365,4.396,1.85,1111122 
DISL,ioos:station:DISL:MHPA:1,2013-10-02T19:30:00Z,30.6671,-87.9365,4.364,1.84,1111122 
DISL,ioos:station:DISL:MHPA:1,2013-10-02T20:00:00Z,30.6671,-87.9365,4.233,1.83,1111122 
DISL,ioos:station:DISL:MHPA:1,2013-10-02T20:30:00Z,30.6671,-87.9365,4.145,1.83,1111122 
DISL,ioos:station:DISL:MHPA:1,2013-10-02T21:00:00Z,30.6671,-87.9365,4.015,1.84,1111122 
DISL,ioos:station:DISL:MHPA:1,2013-10-02T21:30:00Z,30.6671,-87.9365,3.96,1.84,1111122 
DISL,ioos:station:DISL:MHPA:1,2013-10-02T22:00:00Z,30.6671,-87.9365,3.889,1.85,1111122 
DISL,ioos:station:DISL:MHPA:1,2013-10-02T22:30:00Z,30.6671,-87.9365,3.855,1.84,1111122 
DISL,ioos:station:DISL:MHPA:1,2013-10-02T23:00:00Z,30.6671,-87.9365,3.92,1.84,1111122 
DISL,ioos:station:DISL:MHPA:1,2013-10-02T23:30:00Z,30.6671,-87.9365,3.942,1.84,1111122 
DISL,ioos:station:DISL:MHPA:1,2013-10-03T00:00:00Z,30.6671,-87.9365,4.064,1.83,1111122 
DISL,ioos:station:DISL:MHPA:1,2013-10-03T00:30:00Z,30.6671,-87.9365,4.057,1.84,1111122 
DISL,ioos:station:DISL:MHPA:1,2013-10-03T01:00:00Z,30.6671,-87.9365,4.024,1.85,1111122 
DISL,ioos:station:DISL:MHPA:1,2013-10-03T01:30:00Z,30.6671,-87.9365,4.018,1.83,1111122 
DISL,ioos:station:DISL:MHPA:1,2013-10-03T02:00:00Z,30.6671,-87.9365,4.13,1.83,1111122 
DISL,ioos:station:DISL:MHPA:1,2013-10-03T02:30:00Z,30.6671,-87.9365,4.242,1.84,1111122 
DISL,ioos:station:DISL:MHPA:1,2013-10-03T03:00:00Z,30.6671,-87.9365,4.343,1.85,1111122 
DISL,ioos:station:DISL:MHPA:1,2013-10-03T03:30:00Z,30.6671,-87.9365,4.468,1.86,1111122 
DISL,ioos:station:DISL:MHPA:1,2013-10-03T04:00:00Z,30.6671,-87.9365,4.546,1.85,1111122 
DISL,ioos:station:DISL:MHPA:1,2013-10-03T04:30:00Z,30.6671,-87.9365,4.577,1.85,1111122 
DISL,ioos:station:DISL:MHPA:1,2013-10-03T05:00:00Z,30.6671,-87.9365,4.677,1.85,1111122 
DISL,ioos:station:DISL:MHPA:1,2013-10-03T05:30:00Z,30.6671,-87.9365,4.683,1.84,1111122 
DISL,ioos:station:DISL:MHPA:1,2013-10-03T06:00:00Z,30.6671,-87.9365,4.632,1.85,1111122 
DISL,ioos:station:DISL:MHPA:1,2013-10-03T06:30:00Z,30.6671,-87.9365,4.609,1.85,1111122 
DISL,ioos:station:DISL:MHPA:1,2013-10-03T07:00:00Z,30.6671,-87.9365,4.58,1.85,1111122 
DISL,ioos:station:DISL:MHPA:1,2013-10-03T07:30:00Z,30.6671,-87.9365,4.565,1.86,1111122 
DISL,ioos:station:DISL:MHPA:1,2013-10-03T08:00:00Z,30.6671,-87.9365,4.586,1.86,1111122 
DISL,ioos:station:DISL:MHPA:1,2013-10-03T08:30:00Z,30.6671,-87.9365,4.557,1.86,1111122 
DISL,ioos:station:DISL:MHPA:1,2013-10-03T09:00:00Z,30.6671,-87.9365,4.491,1.86,1111122 
DISL,ioos:station:DISL:MHPA:1,2013-10-03T09:30:00Z,30.6671,-87.9365,4.486,1.86,1111122 
DISL,ioos:station:DISL:MHPA:1,2013-10-03T10:00:00Z,30.6671,-87.9365,4.441,1.86,1111122 
DISL,ioos:station:DISL:MHPA:1,2013-10-03T10:30:00Z,30.6671,-87.9365,4.305,1.87,1111122 
DISL,ioos:station:DISL:MHPA:1,2013-10-03T11:00:00Z,30.6671,-87.9365,4.185,1.87,1111122 
DISL,ioos:station:DISL:MHPA:1,2013-10-03T11:30:00Z,30.6671,-87.9365,4.138,1.89,1111122 
DISL,ioos:station:DISL:MHPA:1,2013-10-03T12:00:00Z,30.6671,-87.9365,4.066,1.89,1111122 
DISL,ioos:station:DISL:MHPA:1,2013-10-03T12:30:00Z,30.6671,-87.9365,4.042,1.89,1111122 
DISL,ioos:station:DISL:MHPA:1,2013-10-03T13:00:00Z,30.6671,-87.9365,4.093,1.93,1111122 
DISL,ioos:station:DISL:MHPA:1,2013-10-03T13:30:00Z,30.6671,-87.9365,4.167,1.92,1111122 
DISL,ioos:station:DISL:MHPA:1,2013-10-03T14:00:00Z,30.6671,-87.9365,4.22,1.89,1111122 
DISL,ioos:station:DISL:MHPA:1,2013-10-03T14:30:00Z,30.6671,-87.9365,4.297,1.87,1111122 
DISL,ioos:station:DISL:MHPA:1,2013-10-03T15:00:00Z,30.6671,-87.9365,4.37,1.88,1111122 
DISL,ioos:station:DISL:MHPA:1,2013-10-03T15:30:00Z,30.6671,-87.9365,4.447,1.89,1111122 
DISL,ioos:station:DISL:MHPA:1,2013-10-03T16:30:00Z,30.6671,-87.9365,4.581,1.87,1111122 
DISL,ioos:station:DISL:MHPA:1,2013-10-03T17:00:00Z,30.6671,-87.9365,4.585,1.87,1111122 
DISL,ioos:station:DISL:MHPA:1,2013-10-03T17:30:00Z,30.6671,-87.9365,4.639,1.88,1111122 
DISL,ioos:station:DISL:MHPA:1,2013-10-03T18:00:00Z,30.6671,-87.9365,4.657,1.88,1111122 
DISL,ioos:station:DISL:MHPA:1,2013-10-03T18:30:00Z,30.6671,-87.9365,4.726,1.89,1111122 
DISL,ioos:station:DISL:MHPA:1,2013-10-03T19:00:00Z,30.6671,-87.9365,4.779,1.89,1111122 
DISL,ioos:station:DISL:MHPA:1,2013-10-03T19:30:00Z,30.6671,-87.9365,4.774,1.89,1111122 
DISL,ioos:station:DISL:MHPA:1,2013-10-03T20:00:00Z,30.6671,-87.9365,4.787,1.9,1111122 
DISL,ioos:station:DISL:MHPA:1,2013-10-03T20:30:00Z,30.6671,-87.9365,4.776,1.9,1111122 
DISL,ioos:station:DISL:MHPA:1,2013-10-03T21:00:00Z,30.6671,-87.9365,4.766,1.9,1111122 
DISL,ioos:station:DISL:MHPA:1,2013-10-03T21:30:00Z,30.6671,-87.9365,4.724,1.9,1111122 
DISL,ioos:station:DISL:MHPA:1,2013-10-03T22:00:00Z,30.6671,-87.9365,4.732,1.9,1111122 
DISL,ioos:station:DISL:MHPA:1,2013-10-03T22:30:00Z,30.6671,-87.9365,4.758,1.91,1111122 
DISL,ioos:station:DISL:MHPA:1,2013-10-03T23:00:00Z,30.6671,-87.9365,4.696,1.93,1111122 
DISL,ioos:station:DISL:MHPA:1,2013-10-03T23:30:00Z,30.6671,-87.9365,4.703,1.93,1111122 
DISL,ioos:station:DISL:MHPA:1,2013-10-04T00:00:00Z,30.6671,-87.9365,4.565,1.95,1111122 
DISL,ioos:station:DISL:MHPA:1,2013-10-04T00:30:00Z,30.6671,-87.9365,4.637,1.95,1111122 
DISL,ioos:station:DISL:MHPA:1,2013-10-04T01:00:00Z,30.6671,-87.9365,4.678,1.95,1111122 
DISL,ioos:station:DISL:MHPA:1,2013-10-04T01:30:00Z,30.6671,-87.9365,4.578,1.94,1111122 
DISL,ioos:station:DISL:MHPA:1,2013-10-04T02:00:00Z,30.6671,-87.9365,4.734,1.96,1111122 
DISL,ioos:station:DISL:MHPA:1,2013-10-04T02:30:00Z,30.6671,-87.9365,4.774,1.94,1111122 
DISL,ioos:station:DISL:MHPA:1,2013-10-04T03:00:00Z,30.6671,-87.9365,4.785,1.94,1111122 
DISL,ioos:station:DISL:MHPA:1,2013-10-04T03:30:00Z,30.6671,-87.9365,4.717,1.94,1111122 
DISL,ioos:station:DISL:MHPA:1,2013-10-04T04:00:00Z,30.6671,-87.9365,4.846,1.94,1111122 
DISL,ioos:station:DISL:MHPA:1,2013-10-04T04:30:00Z,30.6671,-87.9365,5.139,1.94,1111122 
DISL,ioos:station:DISL:MHPA:1,2013-10-04T05:00:00Z,30.6671,-87.9365,5.124,1.95,1111122 
DISL,ioos:station:DISL:MHPA:1,2013-10-04T05:30:00Z,30.6671,-87.9365,4.929,1.95,1111122 
DISL,ioos:station:DISL:MHPA:1,2013-10-04T06:00:00Z,30.6671,-87.9365,4.829,1.94,1111122 
DISL,ioos:station:DISL:MHPA:1,2013-10-04T06:30:00Z,30.6671,-87.9365,4.829,1.94,1111122 
DISL,ioos:station:DISL:MHPA:1,2013-10-04T07:00:00Z,30.6671,-87.9365,4.731,1.94,1111122 
DISL,ioos:station:DISL:MHPA:1,2013-10-04T07:30:00Z,30.6671,-87.9365,4.647,1.94,1111122 
DISL,ioos:station:DISL:MHPA:1,2013-10-04T08:00:00Z,30.6671,-87.9365,4.521,1.95,1111122 
DISL,ioos:station:DISL:MHPA:1,2013-10-04T08:30:00Z,30.6671,-87.9365,4.437,1.96,1111122 
DISL,ioos:station:DISL:MHPA:1,2013-10-04T09:00:00Z,30.6671,-87.9365,4.382,1.96,1111122 
DISL,ioos:station:DISL:MHPA:1,2013-10-04T09:30:00Z,30.6671,-87.9365,4.309,1.97,1111122 
DISL,ioos:station:DISL:MHPA:1,2013-10-04T10:00:00Z,30.6671,-87.9365,4.177,1.98,1111122 
DISL,ioos:station:DISL:MHPA:1,2013-10-04T10:30:00Z,30.6671,-87.9365,4.081,1.98,1111122 
DISL,ioos:station:DISL:MHPA:1,2013-10-04T11:00:00Z,30.6671,-87.9365,3.992,1.99,1111122 
DISL,ioos:station:DISL:MHPA:1,2013-10-04T11:30:00Z,30.6671,-87.9365,3.891,1.99,1111122 
DISL,ioos:station:DISL:MHPA:1,2013-10-04T12:00:00Z,30.6671,-87.9365,3.832,1.99,1111122 
DISL,ioos:station:DISL:MHPA:1,2013-10-04T12:30:00Z,30.6671,-87.9365,3.824,1.99,1111122 
DISL,ioos:station:DISL:MHPA:1,2013-10-04T13:00:00Z,30.6671,-87.9365,3.769,1.99,1111122 
DISL,ioos:station:DISL:MHPA:1,2013-10-04T13:30:00Z,30.6671,-87.9365,3.813,2.11,1111122 
DISL,ioos:station:DISL:MHPA:1,2013-10-04T14:00:00Z,30.6671,-87.9365,3.876,2.1,1111122 
DISL,ioos:station:DISL:MHPA:1,2013-10-04T14:30:00Z,30.6671,-87.9365,3.971,2.1,1111122 
DISL,ioos:station:DISL:MHPA:1,2013-10-04T15:00:00Z,30.6671,-87.9365,4.051,2.1,1111122 
DISL,ioos:station:DISL:MHPA:1,2013-10-04T15:30:00Z,30.6671,-87.9365,4.121,2.11,1111122 
DISL,ioos:station:DISL:MHPA:1,2013-10-04T16:00:00Z,30.6671,-87.9365,4.247,2.07,1111122 
DISL,ioos:station:DISL:MHPA:1,2013-10-04T16:30:00Z,30.6671,-87.9365,4.376,2.08,1111122 
DISL,ioos:station:DISL:MHPA:1,2013-10-04T17:00:00Z,30.6671,-87.9365,4.452,2.04,1111122 
DISL,ioos:station:DISL:MHPA:1,2013-10-04T17:30:00Z,30.6671,-87.9365,4.514,2.03,1111122 
DISL,ioos:station:DISL:MHPA:1,2013-10-04T18:00:00Z,30.6671,-87.9365,4.649,2.03,1111122 
DISL,ioos:station:DISL:MHPA:1,2013-10-04T18:30:00Z,30.6671,-87.9365,4.788,2.03,1111122 
DISL,ioos:station:DISL:MHPA:1,2013-10-04T19:00:00Z,30.6671,-87.9365,4.854,2.02,1111122 
DISL,ioos:station:DISL:MHPA:1,2013-10-04T19:30:00Z,30.6671,-87.9365,4.85,2.01,1111122 
DISL,ioos:station:DISL:MHPA:1,2013-10-04T20:00:00Z,30.6671,-87.9365,4.964,2.03,1111122 
DISL,ioos:station:DISL:MHPA:1,2013-10-04T20:30:00Z,30.6671,-87.9365,5.012,2.01,1111122 
DISL,ioos:station:DISL:MHPA:1,2013-10-04T21:00:00Z,30.6671,-87.9365,4.957,2.02,1111122 
DISL,ioos:station:DISL:MHPA:1,2013-10-04T21:30:00Z,30.6671,-87.9365,4.91,2.01,1111122 
DISL,ioos:station:DISL:MHPA:1,2013-10-04T22:00:00Z,30.6671,-87.9365,4.825,2.01,1111122 
DISL,ioos:station:DISL:MHPA:1,2013-10-04T22:30:00Z,30.6671,-87.9365,4.824,2.06,1111122 
DISL,ioos:station:DISL:MHPA:1,2013-10-04T23:00:00Z,30.6671,-87.9365,4.821,2.07,1111122 
DISL,ioos:station:DISL:MHPA:1,2013-10-04T23:30:00Z,30.6671,-87.9365,4.711,2.08,1111122 
DISL,ioos:station:DISL:MHPA:1,2013-10-05T00:00:00Z,30.6671,-87.9365,4.684,2.18,1111122 
DISL,ioos:station:DISL:MHPA:1,2013-10-05T00:30:00Z,30.6671,-87.9365,4.669,2.29,1111122 
DISL,ioos:station:DISL:MHPA:1,2013-10-05T01:00:00Z,30.6671,-87.9365,4.65,2.25,1111122 
DISL,ioos:station:DISL:MHPA:1,2013-10-05T01:30:00Z,30.6671,-87.9365,4.596,2.18,1111122 
DISL,ioos:station:DISL:MHPA:1,2013-10-05T02:00:00Z,30.6671,-87.9365,4.629,2.16,1111122 
DISL,ioos:station:DISL:MHPA:1,2013-10-05T02:30:00Z,30.6671,-87.9365,4.61,2.16,1111122 
DISL,ioos:station:DISL:MHPA:1,2013-10-05T03:00:00Z,30.6671,-87.9365,4.601,2.14,1111122 
DISL,ioos:station:DISL:MHPA:1,2013-10-05T03:30:00Z,30.6671,-87.9365,4.639,2.15,1111122 
DISL,ioos:station:DISL:MHPA:1,2013-10-05T04:00:00Z,30.6671,-87.9365,4.699,2.14,1111122 
DISL,ioos:station:DISL:MHPA:1,2013-10-05T04:30:00Z,30.6671,-87.9365,4.691,2.13,1111122 
DISL,ioos:station:DISL:MHPA:1,2013-10-05T05:00:00Z,30.6671,-87.9365,4.71,2.13,1111122 
DISL,ioos:station:DISL:MHPA:1,2013-10-05T05:30:00Z,30.6671,-87.9365,4.757,2.12,1111122 
DISL,ioos:station:DISL:MHPA:1,2013-10-05T06:00:00Z,30.6671,-87.9365,4.74,2.11,1111122 
DISL,ioos:station:DISL:MHPA:1,2013-10-05T06:30:00Z,30.6671,-87.9365,4.725,2.11,1111122 
DISL,ioos:station:DISL:MHPA:1,2013-10-05T07:00:00Z,30.6671,-87.9365,4.686,2.11,1111122 
DISL,ioos:station:DISL:MHPA:1,2013-10-05T07:30:00Z,30.6671,-87.9365,4.669,2.11,1111122 
DISL,ioos:station:DISL:MHPA:1,2013-10-05T08:00:00Z,30.6671,-87.9365,4.619,2.11,1111122 
DISL,ioos:station:DISL:MHPA:1,2013-10-05T08:30:00Z,30.6671,-87.9365,4.549,2.11,1111122 
DISL,ioos:station:DISL:MHPA:1,2013-10-05T09:00:00Z,30.6671,-87.9365,4.485,2.11,1111122 
DISL,ioos:station:DISL:MHPA:1,2013-10-05T09:30:00Z,30.6671,-87.9365,4.424,2.12,1111122 
DISL,ioos:station:DISL:MHPA:1,2013-10-05T10:00:00Z,30.6671,-87.9365,4.341,2.13,1111122 
DISL,ioos:station:DISL:MHPA:1,2013-10-05T10:30:00Z,30.6671,-87.9365,4.256,2.13,1111122 
DISL,ioos:station:DISL:MHPA:1,2013-10-05T11:00:00Z,30.6671,-87.9365,4.177,2.15,1111122 
DISL,ioos:station:DISL:MHPA:1,2013-10-05T11:30:00Z,30.6671,-87.9365,4.055,2.17,1111122 
DISL,ioos:station:DISL:MHPA:1,2013-10-05T12:00:00Z,30.6671,-87.9365,3.925,2.2,1111122 
DISL,ioos:station:DISL:MHPA:1,2013-10-05T12:30:00Z,30.6671,-87.9365,3.845,2.17,1111122 
DISL,ioos:station:DISL:MHPA:1,2013-10-05T13:00:00Z,30.6671,-87.9365,3.793,2.19,1111122 
DISL,ioos:station:DISL:MHPA:1,2013-10-05T13:30:00Z,30.6671,-87.9365,3.751,2.21,1111122 
DISL,ioos:station:DISL:MHPA:1,2013-10-05T14:00:00Z,30.6671,-87.9365,3.694,2.27,1111122 
DISL,ioos:station:DISL:MHPA:1,2013-10-05T14:30:00Z,30.6671,-87.9365,3.695,2.25,1111122 
DISL,ioos:station:DISL:MHPA:1,2013-10-05T15:00:00Z,30.6671,-87.9365,3.735,2.23,1111122 
DISL,ioos:station:DISL:MHPA:1,2013-10-05T15:30:00Z,30.6671,-87.9365,3.831,2.21,1111122 
DISL,ioos:station:DISL:MHPA:1,2013-10-05T16:00:00Z,30.6671,-87.9365,3.879,2.2,1111122 
DISL,ioos:station:DISL:MHPA:1,2013-10-05T16:30:00Z,30.6671,-87.9365,3.962,2.17,1111122 
DISL,ioos:station:DISL:MHPA:1,2013-10-05T17:00:00Z,30.6671,-87.9365,4.058,2.18,1111122 
DISL,ioos:station:DISL:MHPA:1,2013-10-05T17:30:00Z,30.6671,-87.9365,4.159,2.18,1111122 
DISL,ioos:station:DISL:MHPA:1,2013-10-05T18:00:00Z,30.6671,-87.9365,4.296,2.18,1111122 
DISL,ioos:station:DISL:MHPA:1,2013-10-05T18:30:00Z,30.6671,-87.9365,4.404,2.18,1111122 
DISL,ioos:station:DISL:MHPA:1,2013-10-05T19:00:00Z,30.6671,-87.9365,4.483,2.19,1111122 
DISL,ioos:station:DISL:MHPA:1,2013-10-05T19:30:00Z,30.6671,-87.9365,4.535,2.19,1111122 
DISL,ioos:station:DISL:MHPA:1,2013-10-05T20:00:00Z,30.6671,-87.9365,4.721,2.21,1111122 
DISL,ioos:station:DISL:MHPA:1,2013-10-05T20:30:00Z,30.6671,-87.9365,4.735,2.24,1111122 
DISL,ioos:station:DISL:MHPA:1,2013-10-05T21:00:00Z,30.6671,-87.9365,4.736,2.26,1111122 
DISL,ioos:station:DISL:MHPA:1,2013-10-05T21:30:00Z,30.6671,-87.9365,4.7,2.26,1111122 
DISL,ioos:station:DISL:MHPA:1,2013-10-05T22:00:00Z,30.6671,-87.9365,4.62,2.24,1111122 
DISL,ioos:station:DISL:MHPA:1,2013-10-05T22:30:00Z,30.6671,-87.9365,4.627,2.26,1111122 
DISL,ioos:station:DISL:MHPA:1,2013-10-05T23:00:00Z,30.6671,-87.9365,4.717,2.25,1111122 
DISL,ioos:station:DISL:MHPA:1,2013-10-05T23:30:00Z,30.6671,-87.9365,4.812,2.27,1111122 
DISL,ioos:station:DISL:MHPA:1,2013-10-06T00:00:00Z,30.6671,-87.9365,4.765,2.27,1111122 
DISL,ioos:station:DISL:MHPA:1,2013-10-06T00:30:00Z,30.6671,-87.9365,4.744,2.28,1111122 
DISL,ioos:station:DISL:MHPA:1,2013-10-06T01:00:00Z,30.6671,-87.9365,4.792,2.26,1111122 
DISL,ioos:station:DISL:MHPA:1,2013-10-06T01:30:00Z,30.6671,-87.9365,4.816,2.27,1111122 
DISL,ioos:station:DISL:MHPA:1,2013-10-06T02:00:00Z,30.6671,-87.9365,4.849,2.28,1111122 
DISL,ioos:station:DISL:MHPA:1,2013-10-06T02:30:00Z,30.6671,-87.9365,4.954,2.3,1111122 
DISL,ioos:station:DISL:MHPA:1,2013-10-06T03:00:00Z,30.6671,-87.9365,5.072,2.3,1111122 
DISL,ioos:station:DISL:MHPA:1,2013-10-06T03:30:00Z,30.6671,-87.9365,5.18,2.28,1111122 
DISL,ioos:station:DISL:MHPA:1,2013-10-06T04:00:00Z,30.6671,-87.9365,5.216,2.26,1111122 
DISL,ioos:station:DISL:MHPA:1,2013-10-06T04:30:00Z,30.6671,-87.9365,5.258,2.25,1111122 
DISL,ioos:station:DISL:MHPA:1,2013-10-06T05:00:00Z,30.6671,-87.9365,5.255,2.24,1111122 
DISL,ioos:station:DISL:MHPA:1,2013-10-06T05:30:00Z,30.6671,-87.9365,5.284,2.24,1111122 
DISL,ioos:station:DISL:MHPA:1,2013-10-06T06:00:00Z,30.6671,-87.9365,5.265,2.24,1111122 
DISL,ioos:station:DISL:MHPA:1,2013-10-06T06:30:00Z,30.6671,-87.9365,5.226,2.24,1111122 
DISL,ioos:station:DISL:MHPA:1,2013-10-06T07:00:00Z,30.6671,-87.9365,5.249,2.24,1111122 
DISL,ioos:station:DISL:MHPA:1,2013-10-06T07:30:00Z,30.6671,-87.9365,5.233,2.25,1111122 
DISL,ioos:station:DISL:MHPA:1,2013-10-06T08:00:00Z,30.6671,-87.9365,5.183,2.24,1111122 
DISL,ioos:station:DISL:MHPA:1,2013-10-06T08:30:00Z,30.6671,-87.9365,5.128,2.25,1111122 
DISL,ioos:station:DISL:MHPA:1,2013-10-06T09:00:00Z,30.6671,-87.9365,5.027,2.26,1111122 
DISL,ioos:station:DISL:MHPA:1,2013-10-06T09:30:00Z,30.6671,-87.9365,4.9,2.27,1111122 
DISL,ioos:station:DISL:MHPA:1,2013-10-06T10:00:00Z,30.6671,-87.9365,4.794,2.27,1111122 
DISL,ioos:station:DISL:MHPA:1,2013-10-06T10:30:00Z,30.6671,-87.9365,4.694,2.27,1111122 
DISL,ioos:station:DISL:MHPA:1,2013-10-06T11:00:00Z,30.6671,-87.9365,4.586,2.3,1111122 
DISL,ioos:station:DISL:MHPA:1,2013-10-06T11:30:00Z,30.6671,-87.9365,4.497,2.3,1111122 
DISL,ioos:station:DISL:MHPA:1,2013-10-06T12:00:00Z,30.6671,-87.9365,4.466,2.3,1111122 
DISL,ioos:station:DISL:MHPA:1,2013-10-06T12:30:00Z,30.6671,-87.9365,4.346,2.31,1111122 
DISL,ioos:station:DISL:MHPA:1,2013-10-06T13:00:00Z,30.6671,-87.9365,4.557,2.32,1111122 
DISL,ioos:station:DISL:MHPA:1,2013-10-06T13:30:00Z,30.6671,-87.9365,4.648,2.33,1111122 
DISL,ioos:station:DISL:MHPA:1,2013-10-06T14:00:00Z,30.6671,-87.9365,4.545,2.32,1111122 
DISL,ioos:station:DISL:MHPA:1,2013-10-06T14:30:00Z,30.6671,-87.9365,4.347,2.31,1111122 
DISL,ioos:station:DISL:MHPA:1,2013-10-06T15:00:00Z,30.6671,-87.9365,4.091,2.33,1111122 
DISL,ioos:station:DISL:MHPA:1,2013-10-06T15:30:00Z,30.6671,-87.9365,4.165,2.33,1111122 
DISL,ioos:station:DISL:MHPA:1,2013-10-06T16:00:00Z,30.6671,-87.9365,4.197,2.34,1111122 